FW4608 Weather Reports


time (UTC)temp
C
wind
direction
speed
KPH
gust
KPH
rain 1hr
cm
rain 24hr
cm
rain mn
cm
humidity
%
barometer
mb
20260906000515 26 53 0.0 0.0 0.00 1.70 1.70 91 1011.0
20260906000010 26 53 0.0 0.0 0.00 1.70 1.70 91 1010.9
20260905235509 26 53 0.0 0.0 0.00 1.70 1.70 91 1010.9
20260905235009 26 53 0.0 0.0 0.00 1.70 1.70 91 1011.0
20260905234508 26 53 0.0 0.0 0.00 1.70 1.70 91 1010.9
20260905234009 26 63 0.0 0.0 0.00 1.70 1.70 91 1010.8
20260905233507 27 68 0.0 0.0 0.00 1.70 1.70 91 1010.6
20260905233007 27 68 0.0 0.0 0.00 1.70 1.70 91 1010.7
20260905232505 27 68 0.0 0.0 0.00 1.70 1.70 90 1010.9
20260905232008 27 68 0.0 0.0 0.00 1.70 1.70 90 1010.8
20260905231503 27 68 0.0 0.0 0.00 1.70 1.70 90 1011.0
20260905231002 27 70 0.0 0.0 0.00 1.70 1.70 90 1010.9
20260905230503 27 63 0.0 0.0 0.00 1.70 1.70 90 1011.0
20260905230100 27 63 0.0 0.0 0.00 1.70 1.70 90 1011.1
20260905225559 27 63 0.0 0.0 0.00 1.73 1.70 90 1011.2
20260905225059 27 63 0.0 0.0 0.00 1.73 1.70 90 1011.2
20260905224558 27 63 0.0 0.0 0.00 1.73 1.70 90 1011.4
20260905224058 27 63 0.0 0.0 0.00 1.73 1.70 91 1011.4
20260905223556 27 63 0.0 0.0 0.00 1.73 1.70 91 1011.4
20260905223056 27 63 0.0 0.0 0.00 1.73 1.70 91 1011.4
20260905222555 27 63 0.0 0.0 0.00 1.73 1.70 91 1011.4
20260905222054 27 63 0.0 0.0 0.00 1.73 1.70 92 1011.4
20260905221553 26 64 0.0 0.0 0.00 1.73 1.70 93 1011.6
20260905221053 26 43 0.0 0.0 0.00 1.73 1.70 95 1011.7
20260905220552 26 43 0.0 1.6 0.00 1.73 1.70 95 1011.7
20260905220051 26 43 0.0 1.6 0.00 1.73 1.70 94 1011.6
20260905215551 25 103 0.0 0.0 0.00 1.83 1.70 95 1011.5
20260905215050 25 78 0.0 0.0 0.00 1.83 1.70 95 1011.5
20260905214549 25 78 0.0 0.0 0.00 1.83 1.70 95 1011.6
20260905214049 25 41 0.0 0.0 0.00 1.83 1.70 95 1011.5
20260905213550 25 127 0.0 0.0 0.00 1.83 1.70 95 1011.5
20260905213047 25 128 0.0 0.0 0.00 1.83 1.70 95 1011.7
20260905212546 25 128 0.0 0.0 0.00 1.83 1.70 95 1011.8
20260905212045 25 170 0.0 0.0 0.00 1.83 1.70 95 1011.8
20260905211545 25 170 0.0 0.0 0.00 1.83 1.70 95 1011.8
20260905211042 25 170 0.0 0.0 0.00 1.83 1.70 95 1011.8
20260905210544 25 169 0.0 3.2 0.00 1.83 1.70 95 1011.9
20260905210042 25 169 0.0 3.2 0.00 1.83 1.70 95 1011.8
20260905205544 25 197 0.0 0.0 0.00 1.88 1.70 95 1011.8
20260905205041 25 197 0.0 0.0 0.00 1.88 1.70 95 1011.9
20260905204548 25 261 0.0 0.0 0.00 1.88 1.70 95 1011.9
20260905204043 25 261 0.0 0.0 0.00 1.88 1.70 95 1011.8
20260905203539 25 261 0.0 3.2 0.00 1.88 1.70 95 1011.9
20260905203038 25 259 0.0 0.0 0.00 1.88 1.70 95 1012.0
20260905202536 25 259 0.0 0.0 0.00 1.88 1.70 95 1011.9
20260905202037 25 259 0.0 3.2 0.00 1.88 1.70 94 1011.9
20260905201540 25 257 0.0 3.2 0.00 1.88 1.70 94 1012.0
20260905201034 25 103 0.0 0.0 0.03 1.88 1.70 94 1012.0
20260905200534 25 103 0.0 0.0 0.05 1.88 1.70 94 1011.7
20260905200040 25 103 0.0 0.0 0.18 1.88 1.70 94 1011.8
20260905195532 25 103 0.0 0.0 0.46 2.26 1.70 94 1011.9
20260905195031 25 103 0.0 0.0 1.07 2.26 1.70 94 1012.0
20260905194533 24 103 0.0 0.0 1.57 2.26 1.70 94 1012.2
20260905194033 24 103 0.0 0.0 1.68 2.26 1.70 94 1012.2
20260905193529 24 103 0.0 0.0 1.68 2.26 1.70 94 1012.4
20260905193029 24 103 0.0 0.0 1.68 2.26 1.70 93 1012.5
20260905192529 23 103 0.0 0.0 1.68 2.26 1.70 92 1012.4
20260905192029 23 103 0.0 0.0 1.68 2.26 1.70 92 1012.1
20260905191527 23 103 0.0 0.0 1.68 2.26 1.70 91 1012.1
20260905191026 24 129 0.0 0.0 1.65 2.24 1.68 91 1012.2
20260905190525 24 141 0.0 0.0 1.63 2.21 1.65 90 1012.5
20260905190030 25 96 0.0 24.1 1.50 2.08 1.52 88 1012.8
20260905185524 25 150 0.0 35.4 1.17 1.75 1.19 86 1013.2
20260905185028 27 294 0.0 14.5 0.51 1.09 0.53 85 1013.2
20260905184523 30 319 4.8 22.5 0.00 0.58 0.03 81 1013.1
20260905184023 33 312 0.0 4.8 0.00 0.58 0.03 75 1012.6
20260905183522 33 240 0.0 4.8 0.00 0.58 0.03 74 1012.1
20260905183020 33 278 0.0 4.8 0.00 0.58 0.03 74 1011.9
20260905182518 34 269 0.0 3.2 0.00 0.58 0.03 72 1012.0
20260905182016 34 124 0.0 3.2 0.00 0.58 0.03 74 1012.1
20260905181514 33 210 0.0 4.8 0.00 0.58 0.03 74 1012.1
20260905181012 33 331 0.0 4.8 0.00 0.58 0.03 76 1012.1
20260905180511 33 221 0.0 4.8 0.00 0.58 0.03 75 1012.2
20260905180008 33 255 0.0 4.8 0.00 0.58 0.03 75 1012.3
20260905175507 33 229 0.0 3.2 0.00 0.58 0.03 75 1012.3
20260905175005 33 220 0.0 3.2 0.00 0.58 0.03 73 1012.4
20260905174505 33 247 0.0 4.8 0.00 0.58 0.03 75 1012.6
20260905174001 33 257 0.0 4.8 0.00 0.58 0.03 74 1012.8
20260905173600 33 238 0.0 6.4 0.00 0.58 0.03 74 1012.8
20260905173059 33 242 0.0 6.4 0.00 0.58 0.03 76 1012.8
20260905172558 33 301 0.0 4.8 0.00 0.58 0.03 74 1012.8
20260905172057 33 220 0.0 4.8 0.00 0.58 0.03 77 1012.8
20260905171555 32 312 0.0 6.4 0.00 0.58 0.03 76 1012.9
20260905171057 32 263 0.0 14.5 0.00 0.58 0.03 79 1013.0
20260905170554 33 257 3.2 14.5 0.00 0.58 0.03 77 1013.2
20260905170057 33 245 0.0 8.0 0.00 0.58 0.03 78 1013.3
20260905165550 33 264 0.0 8.0 0.00 0.58 0.03 77 1013.4
20260905165051 33 256 0.0 9.7 0.00 0.58 0.03 79 1013.4
20260905164547 33 245 1.6 9.7 0.00 0.58 0.03 79 1013.5
20260905164045 33 245 0.0 8.0 0.00 0.58 0.03 81 1013.6
20260905163542 32 241 0.0 9.7 0.00 0.58 0.03 81 1013.7
20260905163041 32 288 1.6 9.7 0.00 0.58 0.03 81 1013.7
20260905162543 32 238 0.0 6.4 0.00 0.58 0.03 82 1013.8
20260905162038 31 236 1.6 9.7 0.00 0.58 0.03 81 1013.9
20260905161536 32 231 0.0 8.0 0.00 0.58 0.03 82 1014.0
20260905161035 32 264 1.6 6.4 0.00 0.58 0.03 81 1014.0
20260905160533 32 243 0.0 3.2 0.00 0.58 0.03 82 1014.0
20260905160041 31 283 0.0 6.4 0.00 0.58 0.03 81 1014.1
20260905155532 31 222 1.6 11.3 0.00 0.58 0.03 82 1014.2
20260905155030 31 237 1.6 11.3 0.00 0.58 0.03 82 1014.3
20260905154528 32 336 0.0 3.2 0.00 0.58 0.03 82 1014.4
20260905154027 31 265 0.0 9.7 0.00 0.58 0.03 83 1014.4
20260905153526 31 252 0.0 9.7 0.00 0.58 0.03 83 1014.4
20260905153022 31 274 0.0 8.0 0.00 0.58 0.03 84 1014.5
20260905152521 31 253 0.0 6.4 0.00 0.58 0.03 84 1014.5
20260905152019 30 318 0.0 8.0 0.00 0.58 0.03 84 1014.5
20260905151518 30 288 0.0 8.0 0.00 0.58 0.03 84 1014.6
20260905151017 30 217 1.6 6.4 0.00 0.58 0.03 85 1014.6
20260905150515 30 244 0.0 4.8 0.00 0.58 0.03 84 1014.6
20260905150013 30 243 0.0 8.0 0.00 0.58 0.03 86 1014.5
20260905145512 30 245 0.0 6.4 0.03 0.58 0.03 86 1014.6
20260905145011 30 300 0.0 8.0 0.03 0.58 0.03 87 1014.6
20260905144509 29 232 1.6 8.0 0.03 0.58 0.03 85 1014.6
20260905144007 29 310 0.0 4.8 0.03 0.58 0.03 87 1014.7
20260905143507 29 297 0.0 6.4 0.03 0.58 0.03 87 1014.7
20260905143005 29 250 0.0 6.4 0.03 0.58 0.03 87 1014.7
20260905142503 29 244 0.0 4.8 0.03 0.58 0.03 88 1014.8
20260905142001 28 245 0.0 4.8 0.03 0.58 0.03 89 1014.8
20260905141600 28 220 0.0 4.8 0.03 0.58 0.03 89 1014.7
20260905141102 28 248 0.0 3.2 0.03 0.58 0.03 89 1014.8
20260905140558 28 313 0.0 3.2 0.03 0.58 0.03 89 1014.7
20260905140056 28 304 0.0 3.2 0.03 0.58 0.03 90 1014.7
20260905135553 27 307 0.0 3.2 0.00 0.56 0.00 91 1014.6
20260905135052 27 207 0.0 3.2 0.00 0.56 0.00 92 1014.5
20260905134556 27 238 0.0 6.4 0.00 0.56 0.00 92 1014.6
20260905134052 27 256 0.0 6.4 0.00 0.56 0.00 92 1014.5
20260905133547 26 204 0.0 1.6 0.00 0.56 0.00 94 1014.5
20260905133046 26 243 0.0 3.2 0.00 0.56 0.00 94 1014.6
20260905132548 26 226 0.0 3.2 0.00 0.56 0.00 95 1014.6
20260905132045 26 240 0.0 1.6 0.00 0.56 0.00 96 1014.5
20260905131548 26 251 0.0 3.2 0.00 0.56 0.00 96 1014.6
20260905131039 25 246 0.0 6.4 0.00 0.56 0.00 96 1014.5
20260905130538 25 225 0.0 8.0 0.00 0.56 0.00 96 1014.5
20260905130036 25 231 0.0 8.0 0.00 0.56 0.00 96 1014.5
20260905125536 25 238 0.0 3.2 0.00 0.56 0.00 96 1014.3
20260905125033 25 246 0.0 0.0 0.00 0.56 0.00 96 1014.4
20260905124536 25 246 0.0 0.0 0.00 0.56 0.00 96 1014.3
20260905124034 25 248 0.0 1.6 0.00 0.56 0.00 96 1014.3
20260905123530 25 242 0.0 1.6 0.00 0.56 0.00 96 1014.3
20260905123029 25 257 0.0 0.0 0.00 0.56 0.00 96 1014.4
20260905122528 24 258 0.0 0.0 0.00 0.56 0.00 96 1014.6
20260905122126 24 237 0.0 0.0 0.00 0.56 0.00 96 1014.4
20260905121525 24 236 0.0 0.0 0.00 0.56 0.00 96 1014.3
20260905121028 24 237 0.0 0.0 0.00 0.56 0.00 96 1014.2
20260905120522 24 237 0.0 0.0 0.00 0.56 0.00 96 1014.1
20260905120021 24 237 0.0 0.0 0.00 0.56 0.00 96 1013.9
20260905115520 24 237 0.0 1.6 0.00 0.56 0.00 96 1013.7
20260905115019 24 237 0.0 1.6 0.00 0.56 0.00 96 1013.7
20260905114532 23 236 0.0 1.6 0.00 0.56 0.00 96 1013.6
20260905114020 23 237 0.0 0.0 0.00 0.56 0.00 96 1013.6
20260905113521 23 237 0.0 0.0 0.00 0.56 0.00 96 1013.5
20260905113030 23 237 0.0 0.0 0.00 0.56 0.00 96 1013.5
20260905112516 23 236 0.0 0.0 0.00 0.56 0.00 96 1013.5
20260905112016 23 237 0.0 0.0 0.00 0.56 0.00 96 1013.4
20260905111515 23 237 0.0 0.0 0.00 0.56 0.00 96 1013.4
20260905111015 23 237 0.0 0.0 0.00 0.56 0.00 96 1013.5
20260905110516 23 236 0.0 0.0 0.00 0.56 0.00 96 1013.3
20260905110015 23 237 0.0 0.0 0.00 0.56 0.00 96 1013.3
20260905105514 23 237 0.0 0.0 0.00 0.56 0.00 96 1013.3
20260905105012 24 236 0.0 0.0 0.00 0.56 0.00 96 1013.2
20260905104519 23 250 0.0 0.0 0.00 0.56 0.00 96 1013.1
20260905104010 23 284 0.0 0.0 0.00 0.56 0.00 96 1013.0
20260905103510 23 284 0.0 0.0 0.00 0.56 0.00 96 1013.0
20260905103021 23 284 0.0 0.0 0.00 0.56 0.00 96 1013.2
20260905102509 23 284 0.0 0.0 0.00 0.56 0.00 96 1013.1
20260905102011 23 284 0.0 0.0 0.00 0.56 0.00 95 1013.0
20260905101507 23 284 0.0 0.0 0.00 0.56 0.00 96 1013.1
20260905101006 23 284 0.0 0.0 0.00 0.56 0.00 96 1013.1
20260905100508 23 284 0.0 0.0 0.00 0.56 0.00 96 1013.1
20260905100010 23 284 0.0 0.0 0.00 0.56 0.00 95 1013.1
20260905095504 23 284 0.0 0.0 0.00 0.56 0.00 96 1013.2
20260905095004 23 284 0.0 0.0 0.00 0.56 0.00 96 1013.3
20260905094510 23 284 0.0 0.0 0.00 0.56 0.00 95 1013.2
20260905094003 23 284 0.0 0.0 0.00 0.56 0.00 95 1013.3
20260905093504 23 284 0.0 0.0 0.00 0.56 0.00 95 1013.2
20260905093001 23 284 0.0 0.0 0.00 0.56 0.00 95 1013.3
20260905092501 23 284 0.0 0.0 0.00 0.56 0.00 95 1013.2
20260905092059 23 284 0.0 0.0 0.00 0.56 0.00 95 1013.2
20260905091605 23 284 0.0 0.0 0.00 0.56 0.00 95 1013.0
20260905091059 23 284 0.0 0.0 0.00 0.56 0.00 95 1012.9
20260905090558 23 284 0.0 0.0 0.00 0.56 0.00 95 1012.9
20260905090059 23 284 0.0 0.0 0.00 0.56 0.00 95 1012.9
20260905085557 23 284 0.0 0.0 0.00 0.56 0.00 95 1012.9
20260905085058 23 284 0.0 0.0 0.00 0.56 0.00 95 1013.0
20260905084557 23 284 0.0 0.0 0.00 0.56 0.00 95 1012.9
20260905084055 23 284 0.0 0.0 0.00 0.56 0.00 95 1012.9
20260905083552 23 284 0.0 0.0 0.00 0.56 0.00 95 1013.0
20260905083049 23 284 0.0 0.0 0.00 0.56 0.00 95 1013.0
20260905082547 23 284 0.0 0.0 0.00 0.56 0.00 95 1012.9
20260905082046 23 284 0.0 0.0 0.00 0.56 0.00 95 1013.0
20260905081543 23 284 0.0 0.0 0.00 0.56 0.00 95 1012.9
20260905081043 23 284 0.0 0.0 0.00 0.56 0.00 95 1012.9
20260905080543 23 284 0.0 0.0 0.00 0.56 0.00 95 1012.9
20260905080050 23 284 0.0 0.0 0.00 0.56 0.00 95 1012.8
20260905075543 23 284 0.0 0.0 0.00 0.56 0.00 95 1012.8
20260905075040 23 284 0.0 0.0 0.00 0.56 0.00 95 1012.8
20260905074540 23 284 0.0 0.0 0.00 0.56 0.00 95 1012.9
20260905074040 23 284 0.0 0.0 0.00 0.56 0.00 95 1012.9
20260905073538 23 284 0.0 0.0 0.00 0.56 0.00 95 1013.0
20260905073038 23 284 0.0 0.0 0.00 0.56 0.00 95 1012.9
20260905072536 23 284 0.0 0.0 0.00 0.56 0.00 95 1013.0
20260905072037 23 284 0.0 0.0 0.00 0.56 0.00 95 1013.1
20260905071534 23 284 0.0 0.0 0.00 0.56 0.00 95 1013.2
20260905071033 23 284 0.0 0.0 0.00 0.56 0.00 95 1013.2
20260905070532 23 284 0.0 0.0 0.00 0.56 0.00 95 1013.3
20260905070036 23 284 0.0 0.0 0.00 0.56 0.00 95 1013.4
20260905065531 23 284 0.0 0.0 0.00 0.56 0.00 95 1013.5
20260905065030 23 284 0.0 0.0 0.00 0.56 0.00 95 1013.5
20260905064534 23 284 0.0 0.0 0.00 0.56 0.00 95 1013.6
20260905064031 23 284 0.0 0.0 0.00 0.56 0.00 95 1013.5
20260905063630 23 284 0.0 0.0 0.00 0.56 0.00 95 1013.5
20260905063028 23 284 0.0 0.0 0.00 0.56 0.00 95 1013.6
20260905062527 23 284 0.0 0.0 0.00 0.56 0.00 95 1013.6
20260905062026 23 284 0.0 0.0 0.00 0.56 0.00 95 1013.7
20260905061626 23 284 0.0 0.0 0.00 0.56 0.00 95 1013.8
20260905061024 23 284 0.0 0.0 0.00 0.56 0.00 95 1013.8
20260905060525 23 284 0.0 0.0 0.00 0.56 0.00 95 1013.9
20260905060033 23 284 0.0 0.0 0.00 0.56 0.00 95 1013.7
20260905055521 23 284 0.0 0.0 0.00 0.56 0.00 95 1013.7
20260905055020 23 284 0.0 0.0 0.00 0.56 0.00 95 1013.9
20260905054520 23 284 0.0 0.0 0.00 0.56 0.00 95 1014.1
20260905054018 23 284 0.0 0.0 0.00 0.56 0.00 95 1014.1
20260905053519 23 284 0.0 0.0 0.00 0.56 0.00 95 1014.1
20260905053028 23 284 0.0 0.0 0.00 0.56 0.00 95 1014.1
20260905052519 23 284 0.0 0.0 0.00 0.56 0.00 95 1014.3
20260905052015 23 284 0.0 0.0 0.00 0.56 0.00 95 1014.4
20260905051514 23 284 0.0 0.0 0.00 0.56 0.00 95 1014.4
20260905051012 23 284 0.0 0.0 0.00 0.56 0.00 95 1014.4
20260905050514 23 284 0.0 0.0 0.00 0.56 0.00 95 1014.3
20260905050012 23 284 0.0 0.0 0.00 0.56 0.00 95 1014.4
20260905045513 23 284 0.0 0.0 0.00 0.56 0.00 95 1014.5
20260905045010 23 284 0.0 0.0 0.00 0.56 0.00 95 1014.5
20260905044510 23 284 0.0 0.0 0.00 0.56 0.00 95 1014.5
20260905044012 23 285 0.0 0.0 0.00 0.56 0.00 95 1014.5
20260905043510 23 285 0.0 0.0 0.00 0.56 0.00 95 1014.4
20260905043008 23 285 0.0 0.0 0.00 0.56 0.00 95 1014.3
20260905042506 23 285 0.0 0.0 0.00 0.56 0.00 95 1014.3
20260905042007 23 285 0.0 0.0 0.00 0.56 0.00 95 1014.2
20260905041506 23 285 0.0 0.0 0.00 0.56 0.00 95 1014.3
20260905041004 23 269 0.0 0.0 0.00 0.56 0.00 95 1014.3
20260905040503 23 269 0.0 0.0 0.00 0.56 0.00 95 1014.3
20260905040002 23 245 0.0 0.0 0.00 0.56 0.56 95 1014.3
20260905035501 23 245 0.0 0.0 0.00 0.56 0.56 95 1014.5
20260905035001 23 245 0.0 0.0 0.00 0.56 0.56 95 1014.6
20260905034501 23 245 0.0 0.0 0.00 0.56 0.56 95 1014.5
20260905034059 23 245 0.0 0.0 0.00 0.56 0.56 95 1014.6
20260905033600 23 245 0.0 0.0 0.00 0.56 0.56 95 1014.6
20260905033102 23 245 0.0 0.0 0.00 0.56 0.56 95 1014.5
20260905032559 23 245 0.0 0.0 0.00 0.56 0.56 95 1014.6
20260905032058 23 245 0.0 0.0 0.00 0.56 0.56 95 1014.7
20260905031559 23 245 0.0 0.0 0.00 0.56 0.56 95 1014.8
20260905031056 23 245 0.0 0.0 0.00 0.56 0.56 95 1014.9
20260905030556 23 245 0.0 0.0 0.00 0.56 0.56 95 1014.8
20260905030115 23 245 0.0 0.0 0.00 0.56 0.56 95 1014.8
20260905025554 23 245 0.0 0.0 0.00 0.56 0.56 95 1014.8
20260905025054 23 246 0.0 0.0 0.00 0.56 0.56 94 1014.9
20260905024555 23 245 0.0 0.0 0.00 0.56 0.56 95 1015.0
20260905024053 23 246 0.0 0.0 0.00 0.56 0.56 95 1015.0
20260905023554 23 245 0.0 0.0 0.00 0.56 0.56 94 1015.0
20260905023052 23 245 0.0 0.0 0.00 0.56 0.56 94 1015.0
20260905022551 23 245 0.0 0.0 0.00 0.56 0.56 94 1015.0
20260905022052 23 245 0.0 0.0 0.00 0.56 0.56 94 1015.0
20260905021550 23 245 0.0 0.0 0.00 0.56 0.56 94 1015.1
20260905021048 23 245 0.0 0.0 0.00 0.56 0.56 94 1015.1
20260905020551 23 245 0.0 0.0 0.00 0.56 0.56 94 1015.0
20260905020100 23 245 0.0 0.0 0.00 0.56 0.56 94 1015.0
20260905015548 23 245 0.0 0.0 0.00 0.56 0.56 94 1015.0
20260905015047 23 245 0.0 1.6 0.00 0.56 0.56 94 1014.9
20260905014548 23 245 0.0 1.6 0.00 0.56 0.56 94 1015.0
20260905014047 23 261 0.0 0.0 0.00 0.56 0.56 94 1015.1
20260905013545 23 157 0.0 0.0 0.00 0.56 0.56 94 1015.0
20260905013044 23 261 0.0 0.0 0.00 0.56 0.56 94 1015.0
20260905012543 23 261 0.0 0.0 0.00 0.56 0.56 94 1015.1
20260905012043 23 314 0.0 0.0 0.00 0.56 0.56 94 1015.1
20260905011542 23 354 0.0 1.6 0.00 0.56 0.56 94 1015.1
20260905011041 23 266 0.0 3.2 0.00 0.56 0.56 94 1014.9
20260905010541 23 269 0.0 3.2 0.00 0.56 0.56 93 1014.9
20260905010040 23 227 0.0 0.0 0.00 0.56 0.56 94 1014.8
20260905005537 23 60 0.0 0.0 0.00 0.56 0.56 94 1014.8
20260905005038 23 53 0.0 0.0 0.00 0.56 0.56 94 1014.8
20260905004541 23 53 0.0 1.6 0.00 0.56 0.56 94 1014.6
20260905004035 24 108 0.0 1.6 0.00 0.56 0.56 93 1014.5
20260905003535 24 110 0.0 1.6 0.00 0.56 0.56 93 1014.5
20260905003035 24 274 0.0 1.6 0.00 0.56 0.56 93 1014.5
20260905002534 24 298 0.0 0.0 0.00 0.56 0.56 93 1014.4
20260905002034 25 158 0.0 0.0 0.00 0.56 0.56 93 1014.3
20260905001534 25 158 0.0 1.6 0.00 0.56 0.56 93 1014.4
20260905001036 25 287 0.0 1.6 0.00 0.56 0.56 93 1014.5